Regional Weather Roundup
Issued by NWS Kansas City/Pleasant Hill, MO

Home | Current Version | Previous Version | Graphics & Text | Print | Product List | Glossary Off
Versions: 1 2 3 4 5 6 7 8 9 10 11 12 13 14 15 16 17 18 19 20 21 22 23 24 25 26 27 28

000
ASUS43 KEAX 172310
RWREAX

WEATHER ROUNDUP FOR EASTERN KANSAS AND NORTHWEST MISSOURI
NATIONAL WEATHER SERVICE KANSAS CITY/PLEASANT HILL MO
600 PM CDT THU AUG 17 2017

KSZ040-057-103>105-MOZ028-029-037-043-180000-
...KANSAS CITY METROPOLITAN AREA...

CITY           SKY/WX    TMP DP  RH WIND       PRES   REMARKS
K.C. INTL      SUNNY     83  63  50 W6        29.93F
K.C. DOWNTOWN  SUNNY     84  62  47 W7        29.92S
LEES SUMMIT    SUNNY     82  61  48 W8        29.94F
OLATHE - IXD   SUNNY     82  61  48 W7        29.96S
OLATHE - OJC   SUNNY     81  60  48 W9        29.95F
LAWRENCE       SUNNY     84  61  45 W8        29.94F

$$

MOZ001>008-011>017-020>025-030>033-038>040-044>046-053-054-180000-
...NORTHERN AND CENTRAL MISSOURI...

CITY           SKY/WX    TMP DP  RH WIND       PRES   REMARKS
ST. JOSEPH     SUNNY     83  62  49 NW9       29.92F
MOSBY          CLEAR     81  59  47 NW9       29.92S
WARRENSBURG    SUNNY     81  61  50 W7        29.93S
WHITEMAN AFB   SUNNY     82  63  52 W12       29.92S
CLINTON        SUNNY     81  63  54 W10       29.94S
SEDALIA        SUNNY     83  64  52 NW10      29.93S
WARSAW         NOT AVBL
CHILLICOTHE      N/A     83  59  44 VRB7G18   29.90F
KIRKSVILLE     SUNNY     83  60  45 W13G22    29.87S

$$

MOZ041-047>049-056>058-063>065-088>090-097-180000-
...EASTERN AND SOUTHERN MISSOURI...

CITY           SKY/WX    TMP DP  RH WIND       PRES   REMARKS
ST. LOUIS INTL CLOUDY    85  68  56 W16       29.86F
SPIRIT OF STL  PTSUNNY   84  66  54 W12       29.86S
COLUMBIA       SUNNY     82  62  50 NW14      29.90S
JEFFERSON CITY SUNNY     82  67  60 W12       29.89S
ROLLA          MOSUNNY   80  65  59 W8        29.93F
OSAGE BEACH    SUNNY     81  65  58 W13       29.93F
SPRINGFIELD    SUNNY     83  67  58 NW9       29.96S
BRANSON        PTSUNNY   82  68  61 W7        29.97F
JOPLIN         SUNNY     85  67  54 NW8       29.97F
WEST PLAINS    PTSUNNY   80  67  64 W5        29.96S

$$

IAZ060-094-KSZ022-034>040-054-083-096-NEZ052-066-093-180000-
...KANSAS...SOUTHEAST NEBRASKA AND IOWA...

CITY           SKY/WX    TMP DP  RH WIND       PRES   REMARKS
TOPEKA         SUNNY     86  60  41 W6        29.94F
MANHATTAN      SUNNY     85  61  44 W3        29.96F
EMPORIA        SUNNY     83  57  41 VRB5      29.98F
CHANUTE        SUNNY     84  57  39 NW9       29.98F
WICHITA        SUNNY     90  54  29 CALM      29.98F
OMAHA          SUNNY     83  59  44 W14       29.91S
LINCOLN        SUNNY     84  61  45 W8        29.94F
FALLS CITY     SUNNY     83  57  41 NW8       29.92F
LAMONI         SUNNY     82  58  43 W14G24    29.89S
DES MOINES     MOSUNNY   82  60  47 NW17G23   29.85R

$$





USA.gov is the U.S. government's official web portal to all federal, state and local government web resources and services.